AFL1008 UUEE-ULLI

Flight info

Callsign AFL1008
Flight time 0h 37m
Altitude 34000
Route TOKNU3F TOKNU L4 NUDKO T561 ODATI T875 GENPA GENPA1V
Aircraft B738/M-SDE2E3FGHIRWXY/LB1

Departure

Time 2026-05-01 10:48
Airport Sheremetyevo International Airport (UUEE)

Arrival

Time 2026-05-01 11:26
Airport Pulkovo Airport (ULLI)
Time Latitude Longitude Altitude Speed Heading
2026-05-01 10:30 55.97881 37.41920 638 ft 0 kts 255°
2026-05-01 10:37 55.97883 37.41930 638 ft 2 kts 252°
2026-05-01 10:38 55.97888 37.41959 638 ft 2 kts 250°
2026-05-01 10:38 55.97894 37.41986 645 ft 2 kts 244°
2026-05-01 10:38 55.97902 37.42011 641 ft 2 kts 227°
2026-05-01 10:38 55.97916 37.42028 638 ft 2 kts 186°
2026-05-01 10:39 55.97927 37.42027 639 ft 1 kts 168°
2026-05-01 10:39 55.97928 37.42027 639 ft 0 kts 167°
2026-05-01 10:42 55.97902 37.42038 639 ft 7 kts 166°
2026-05-01 10:42 55.97842 37.42065 641 ft 11 kts 165°
2026-05-01 10:42 55.97787 37.42091 638 ft 13 kts 164°
2026-05-01 10:42 55.97709 37.42136 642 ft 8 kts 146°
2026-05-01 10:43 55.97697 37.42264 638 ft 10 kts 76°
2026-05-01 10:43 55.97722 37.42439 646 ft 20 kts 75°
2026-05-01 10:43 55.97747 37.42608 638 ft 22 kts 76°
2026-05-01 10:43 55.97787 37.42874 638 ft 22 kts 75°
2026-05-01 10:44 55.97826 37.43131 641 ft 21 kts 75°
2026-05-01 10:44 55.97863 37.43384 646 ft 21 kts 75°
2026-05-01 10:44 55.97900 37.43629 640 ft 20 kts 75°
2026-05-01 10:44 55.97936 37.43867 646 ft 19 kts 75°
2026-05-01 10:45 55.97929 37.44023 643 ft 7 kts 138°
2026-05-01 10:45 55.97917 37.44034 638 ft 0 kts 155°
2026-05-01 10:46 55.97893 37.44048 641 ft 6 kts 163°
2026-05-01 10:46 55.97848 37.44070 639 ft 7 kts 167°
2026-05-01 10:46 55.97797 37.44045 639 ft 8 kts 217°
2026-05-01 10:46 55.97772 37.43955 639 ft 8 kts 253°
2026-05-01 10:47 55.97771 37.43948 639 ft 0 kts 253°
2026-05-01 10:48 55.97760 37.43876 642 ft 32 kts 255°
2026-05-01 10:48 55.97619 37.42933 641 ft 122 kts 255°
2026-05-01 10:48 55.97362 37.41079 911 ft 173 kts 258°
2026-05-01 10:48 55.97081 37.39004 2123 ft 172 kts 256°
2026-05-01 10:49 55.96809 37.36991 3447 ft 169 kts 261°
2026-05-01 10:49 55.96484 37.34814 4032 ft 196 kts 256°
2026-05-01 10:49 55.96145 37.32770 4233 ft 219 kts 255°
2026-05-01 10:49 55.95690 37.30001 4490 ft 246 kts 255°
2026-05-01 10:50 55.95199 37.26988 5115 ft 259 kts 255°
2026-05-01 10:50 55.94761 37.23857 6075 ft 261 kts 268°
2026-05-01 10:50 55.95158 37.20762 7084 ft 259 kts 302°
2026-05-01 10:50 55.96247 37.18188 8059 ft 261 kts 309°
2026-05-01 10:51 55.97398 37.15635 8968 ft 266 kts 309°
2026-05-01 10:51 55.98569 37.13049 9918 ft 270 kts 309°
2026-05-01 10:51 55.99767 37.10393 10553 ft 284 kts 309°
2026-05-01 10:51 56.01063 37.07506 10758 ft 310 kts 309°
2026-05-01 10:52 56.02452 37.04392 11201 ft 327 kts 309°
2026-05-01 10:52 56.03866 37.01209 11944 ft 332 kts 309°
2026-05-01 10:52 56.05307 36.97949 12796 ft 336 kts 309°
2026-05-01 10:52 56.06761 36.94651 13627 ft 340 kts 309°
2026-05-01 10:53 56.08231 36.91309 14395 ft 344 kts 309°
2026-05-01 10:53 56.09718 36.87919 15145 ft 347 kts 309°
2026-05-01 10:53 56.11215 36.84500 15879 ft 351 kts 309°
2026-05-01 10:53 56.12724 36.81049 16615 ft 354 kts 309°
2026-05-01 10:54 56.14256 36.77541 17351 ft 358 kts 309°
2026-05-01 10:54 56.15797 36.74004 18072 ft 362 kts 309°
2026-05-01 10:54 56.17357 36.70419 18750 ft 366 kts 309°
2026-05-01 10:54 56.18931 36.66798 19372 ft 369 kts 310°
2026-05-01 10:55 56.20516 36.63144 19995 ft 372 kts 310°
2026-05-01 10:55 56.22112 36.59461 20594 ft 376 kts 310°
2026-05-01 10:55 56.23726 36.55731 21186 ft 379 kts 310°
2026-05-01 10:55 56.25351 36.51968 21780 ft 382 kts 310°
2026-05-01 10:56 56.26989 36.48170 22359 ft 386 kts 311°
2026-05-01 10:56 56.28640 36.44336 22928 ft 389 kts 311°
2026-05-01 10:56 56.30286 36.40507 23462 ft 393 kts 311°
2026-05-01 10:56 56.31964 36.36598 23969 ft 396 kts 311°
2026-05-01 10:57 56.33657 36.32647 24409 ft 399 kts 311°
2026-05-01 10:57 56.35355 36.28678 24854 ft 401 kts 311°
2026-05-01 10:57 56.37068 36.24667 25292 ft 404 kts 311°
2026-05-01 10:57 56.38789 36.20630 25713 ft 407 kts 311°
2026-05-01 10:58 56.40519 36.16565 26117 ft 410 kts 311°
2026-05-01 10:58 56.42268 36.12451 26526 ft 413 kts 311°
2026-05-01 10:58 56.44019 36.08322 26921 ft 415 kts 311°
2026-05-01 10:58 56.45784 36.04156 27314 ft 418 kts 311°
2026-05-01 10:59 56.47555 35.99965 27688 ft 421 kts 311°
2026-05-01 10:59 56.49338 35.95741 28055 ft 424 kts 311°
2026-05-01 10:59 56.51130 35.91487 28419 ft 426 kts 311°
2026-05-01 10:59 56.52934 35.87197 28779 ft 429 kts 311°
2026-05-01 11:00 56.54743 35.82888 29158 ft 430 kts 311°
2026-05-01 11:00 56.56525 35.78633 29658 ft 429 kts 311°
2026-05-01 11:00 56.58327 35.74321 30202 ft 427 kts 311°
2026-05-01 11:00 56.60120 35.70025 30589 ft 427 kts 311°
2026-05-01 11:01 56.61917 35.65712 30919 ft 428 kts 311°
2026-05-01 11:01 56.63713 35.61397 31264 ft 428 kts 311°
2026-05-01 11:01 56.65505 35.57082 31639 ft 427 kts 311°
2026-05-01 11:01 56.67296 35.52761 32005 ft 427 kts 311°
2026-05-01 11:02 56.71738 35.42020 32817 ft 428 kts 311°
2026-05-01 11:02 56.75389 35.33154 33547 ft 427 kts 311°
2026-05-01 11:02 56.77170 35.28813 33879 ft 427 kts 311°
2026-05-01 11:02 56.78951 35.24464 34174 ft 428 kts 311°
2026-05-01 11:03 56.80743 35.20084 34188 ft 433 kts 311°
2026-05-01 11:03 56.84315 35.11324 34188 ft 431 kts 311°
2026-05-01 11:04 56.92854 34.92119 34203 ft 408 kts 330°
2026-05-01 11:04 56.98575 34.85612 34211 ft 416 kts 331°
2026-05-01 11:05 57.18131 34.62176 34179 ft 428 kts 330°
2026-05-01 11:05 57.55837 34.15917 34126 ft 414 kts 331°
2026-05-01 11:05 57.68947 33.99571 34144 ft 401 kts 331°
2026-05-01 11:06 57.87297 33.76462 34195 ft 396 kts 331°
2026-05-01 11:06 58.08358 33.44204 34222 ft 411 kts 326°
2026-05-01 11:07 58.29239 33.12010 31445 ft 380 kts 327°
2026-05-01 11:07 58.37253 32.99492 29746 ft 364 kts 327°
2026-05-01 11:07 58.47117 32.83963 27569 ft 340 kts 327°
2026-05-01 11:07 58.60890 32.61998 25088 ft 308 kts 327°
2026-05-01 11:08 58.73913 32.41174 22187 ft 304 kts 327°
2026-05-01 11:08 58.86864 32.20232 19297 ft 304 kts 326°
2026-05-01 11:08 59.00744 31.97461 16150 ft 286 kts 324°
2026-05-01 11:09 59.05911 31.88953 15142 ft 274 kts 324°
2026-05-01 11:09 59.11658 31.79362 13856 ft 271 kts 321°
2026-05-01 11:09 59.14613 31.73779 13036 ft 271 kts 319°
2026-05-01 11:10 59.22674 31.58320 11114 ft 267 kts 319°
2026-05-01 11:10 59.24233 31.55350 10768 ft 270 kts 318°
2026-05-01 11:10 59.25586 31.52769 10519 ft 272 kts 318°
2026-05-01 11:10 59.26935 31.50190 10405 ft 271 kts 318°
2026-05-01 11:11 59.28271 31.47630 10273 ft 265 kts 318°
2026-05-01 11:11 59.29567 31.45140 10081 ft 258 kts 318°
2026-05-01 11:11 59.30831 31.42710 9802 ft 253 kts 318°
2026-05-01 11:11 59.32082 31.40305 9508 ft 251 kts 317°
2026-05-01 11:12 59.33322 31.37919 9236 ft 248 kts 317°
2026-05-01 11:12 59.34546 31.35562 8944 ft 246 kts 317°
2026-05-01 11:12 59.35766 31.33208 8688 ft 244 kts 317°
2026-05-01 11:12 59.37554 31.29756 8289 ft 242 kts 317°
2026-05-01 11:13 59.38749 31.27445 8034 ft 241 kts 316°
2026-05-01 11:13 59.39938 31.25142 7770 ft 240 kts 316°
2026-05-01 11:13 59.41107 31.22877 7509 ft 238 kts 316°
2026-05-01 11:13 59.42300 31.20563 7251 ft 237 kts 316°
2026-05-01 11:14 59.43460 31.18312 6991 ft 236 kts 315°
2026-05-01 11:14 59.44627 31.16042 6733 ft 235 kts 315°
2026-05-01 11:14 59.45789 31.13781 6474 ft 235 kts 315°
2026-05-01 11:14 59.46949 31.11523 6200 ft 234 kts 315°
2026-05-01 11:15 59.48100 31.09278 5930 ft 232 kts 314°
2026-05-01 11:15 59.49229 31.07074 5663 ft 231 kts 314°
2026-05-01 11:15 59.50370 31.04845 5427 ft 230 kts 314°
2026-05-01 11:15 59.51503 31.02629 5190 ft 229 kts 314°
2026-05-01 11:16 59.52575 31.00345 5069 ft 228 kts 310°
2026-05-01 11:16 59.53626 30.97937 4953 ft 237 kts 309°
2026-05-01 11:16 59.54711 30.95431 4818 ft 243 kts 309°
2026-05-01 11:16 59.55816 30.92878 4684 ft 245 kts 309°
2026-05-01 11:17 59.56928 30.90315 4546 ft 246 kts 309°
2026-05-01 11:17 59.57668 30.88612 4451 ft 247 kts 309°
2026-05-01 11:17 59.58661 30.86327 4324 ft 243 kts 309°
2026-05-01 11:17 59.59739 30.83846 4198 ft 239 kts 309°
2026-05-01 11:18 59.60824 30.81347 3965 ft 240 kts 309°
2026-05-01 11:18 59.61556 30.79666 3877 ft 238 kts 309°
2026-05-01 11:18 59.62531 30.77423 3737 ft 237 kts 309°
2026-05-01 11:18 59.63605 30.74946 3607 ft 236 kts 309°
2026-05-01 11:19 59.64670 30.72482 3476 ft 235 kts 309°
2026-05-01 11:19 59.65738 30.70014 3342 ft 236 kts 309°
2026-05-01 11:19 59.66823 30.67606 3212 ft 232 kts 316°
2026-05-01 11:19 59.68084 30.65718 3102 ft 222 kts 323°
2026-05-01 11:20 59.69331 30.64059 2948 ft 214 kts 323°
2026-05-01 11:20 59.70529 30.62447 2838 ft 203 kts 323°
2026-05-01 11:20 59.71662 30.60898 2779 ft 193 kts 322°
2026-05-01 11:20 59.72744 30.59405 2652 ft 187 kts 322°
2026-05-01 11:21 59.73798 30.57946 2576 ft 184 kts 322°
2026-05-01 11:21 59.74758 30.56292 2421 ft 183 kts 298°
2026-05-01 11:21 59.75163 30.53991 2380 ft 174 kts 287°
2026-05-01 11:21 59.75552 30.51761 2233 ft 167 kts 288°
2026-05-01 11:22 59.75896 30.49610 2077 ft 161 kts 286°
2026-05-01 11:22 59.76213 30.47487 2053 ft 164 kts 286°
2026-05-01 11:22 59.76538 30.45264 1874 ft 166 kts 285°
2026-05-01 11:22 59.76847 30.43156 1653 ft 151 kts 286°
2026-05-01 11:23 59.77130 30.41219 1469 ft 143 kts 285°
2026-05-01 11:23 59.77398 30.39392 1265 ft 137 kts 285°
2026-05-01 11:23 59.77666 30.37574 1129 ft 138 kts 285°
2026-05-01 11:23 59.77925 30.35803 1003 ft 127 kts 284°
2026-05-01 11:24 59.78158 30.34136 696 ft 124 kts 283°
2026-05-01 11:24 59.78408 30.32404 557 ft 137 kts 285°
2026-05-01 11:24 59.78962 30.28753 182 ft 136 kts 285°
2026-05-01 11:25 59.79233 30.26978 98 ft 127 kts 286°
2026-05-01 11:25 59.79571 30.24702 88 ft 60 kts 287°
2026-05-01 11:25 59.79679 30.23965 82 ft 50 kts 284°
2026-05-01 11:26 59.79775 30.23363 83 ft 39 kts 301°
2026-05-01 11:26 59.79926 30.23036 83 ft 0 kts 334°